Home > Weather > Fukuoka > Past weeks

Flag for Japan Weather for the Past 2 Weeks in Fukuoka, Japan

Now
64 °F

Light rain. Broken clouds.


Feels Like: 64 °F
Forecast: 61 / 69 °F
Wind: 21 mph from Southeast

Location: Fukuoka Airport

Current Time: May 3, 2016 at 7:30:50 AM

Latest Report: May 3, 2016 at 7:00 AM


Visibility: N/A

Pressure: 29.68 "Hg

Humidity: 60%

Dew Point: 50 °F

Location of FukuokaLocation

Historic Weather in Fukuoka — Graph

°F

Fukuoka Temperature Yesterday

Maximum temperature yesterday: 81 °F (at 4:00 PM)
Minimum temperature yesterday: 61 °F (at 2:00 AM)
Average temperature yesterday: 70 °F

High & Low Weather Summary for the Past Weeks

 TemperatureHumidityPressure
High81 °F (May 2, 4:00 PM)94% (Apr 21, 7:30 AM)30.24 "Hg (Apr 21, 7:30 AM)
Low48 °F (Apr 19, 3:30 AM)24% (Apr 19, 12:30 PM)29.47 "Hg (Apr 27, 7:30 PM)
Average63 °F68%29.91 "Hg
* Reported Apr 18 6:00 AM — May 3 6:00 AM, Fukuoka, Weather by CustomWeather, © 2016

Note: Actual official high and low records may vary slightly from our data, if they occured in-between our weather recording intervals... More about our weather records

Advertising

Fukuoka Weather History for the Previous 24 Hours

Scroll right to see more
 ConditionsComfort  
Time TempWeatherWind HumidityBarometerVisibility
6:00 AM
Tue, May 3
64 °FLight rain. Broken clouds.16 mph60%29.71 "HgN/A
5:30 AM66 °FBroken clouds.22 mph52%29.71 "HgN/A
5:00 AM68 °FClear.22 mph46%29.74 "Hg10 mi
4:30 AM68 °FPartly cloudy.20 mph43%29.74 "HgN/A
4:00 AM68 °FClear.15 mph40%29.77 "Hg10 mi
3:30 AM68 °FPartly cloudy.14 mph38%29.77 "HgN/A
3:00 AM68 °FPassing clouds.9 mph38%29.80 "HgN/A
2:30 AM68 °FPartly cloudy.13 mph38%29.80 "HgN/A
2:00 AM68 °FPartly cloudy.16 mph46%29.80 "HgN/A
1:30 AM68 °FPassing clouds.16 mph56%29.83 "HgN/A
1:00 AM68 °FPassing clouds.15 mph56%29.83 "HgN/A
12:30 AM68 °FPartly cloudy.15 mph60%29.86 "HgN/A
12:00 AM70 °FPassing clouds.14 mph57%29.86 "HgN/A
11:30 PM
Mon, May 2
70 °FPassing clouds.10 mph60%29.89 "HgN/A
11:00 PM70 °FPartly cloudy.14 mph60%29.89 "HgN/A
10:30 PM70 °FPartly cloudy.7 mph60%29.92 "HgN/A
10:00 PM72 °FPassing clouds.5 mph57%29.92 "HgN/A
9:30 PM70 °FClear.9 mph60%29.92 "Hg10 mi
9:00 PM70 °FClear.7 mph60%29.95 "Hg10 mi
8:30 PM72 °FPassing clouds.3 mph53%29.95 "HgN/A
8:00 PM72 °FClear.2 mph53%29.92 "Hg10 mi
7:30 PM73 °FClear.6 mph47%29.92 "Hg10 mi
7:00 PM73 °FSunny.8 mph50%29.92 "Hg10 mi
6:30 PM73 °FSunny.9 mph47%29.92 "Hg10 mi
6:00 PM75 °FSunny.8 mph44%29.92 "Hg10 mi
5:30 PM77 °FPartly sunny.7 mph42%29.92 "HgN/A
5:00 PM79 °FPartly sunny.12 mph45%29.92 "HgN/A
4:30 PM81 °FPartly sunny.13 mph39%29.92 "HgN/A
4:00 PM81 °FPartly sunny.15 mph37%29.95 "HgN/A
3:30 PM79 °FPartly sunny.13 mph37%29.95 "HgN/A
2:00 PM79 °FPartly sunny.12 mph37%29.98 "HgN/A
1:30 PM79 °FPassing clouds.9 mph39%29.98 "HgN/A
1:00 PM79 °FPartly sunny.8 mph39%30.01 "HgN/A
12:30 PM79 °FPartly sunny.12 mph39%30.01 "HgN/A
12:00 PM77 °FPassing clouds.9 mph44%30.01 "HgN/A
11:30 AM77 °FPassing clouds.12 mph44%30.04 "HgN/A
11:00 AM75 °FSunny.13 mph47%30.04 "Hg10 mi
10:30 AM75 °FSunny.12 mph50%30.04 "Hg10 mi
10:00 AM73 °FSunny.12 mph57%30.04 "Hg10 mi
9:30 AM72 °FSunny.14 mph57%30.04 "Hg10 mi
9:00 AM70 °FSunny.13 mph60%30.04 "Hg10 mi
8:30 AM70 °FSunny.13 mph60%30.07 "Hg10 mi
8:00 AM70 °FSunny.12 mph60%30.07 "Hg10 mi
7:30 AM66 °FSunny.10 mph64%30.07 "Hg10 mi
7:00 AM63 °FSunny.8 mph73%30.07 "Hg10 mi
Weather by CustomWeather, © 2016

See weather overviewHow to use our weather pages